• In Uzbekistan
  • List of Countries
  • For 7 days
  • Water Temperature
  • Satellite Maps
  • Weather Map
  • Weather Widgets
  • user-avatar
    Login

    Hourly Weather Bekescsaba

    Today, 20 October, Friday

    Time Temperature Precipitation Wind Pressure Humidity
    00:00 +15°C° 0 mm 1 mps 755 mmHg 58%
    01:00 +15°C° 0 mm 1 mps 755 mmHg 60%
    02:00 +14°C° 0 mm 1 mps 755 mmHg 62%
    03:00 +14°C° 0 mm 1 mps 755 mmHg 64%
    04:00 +13°C° 0 mm 1 mps 755 mmHg 66%
    05:00 +13°C° 0 mm 1 mps 755 mmHg 67%
    06:00 +13°C° 0 mm 1 mps 756 mmHg 67%
    07:00 +14°C° 0 mm 1 mps 756 mmHg 67%
    08:00 +15°C° 0 mm 1 mps 756 mmHg 60%
    09:00 +18°C° 0 mm 1 mps 756 mmHg 53%
    10:00 +20°C° 0 mm 1 mps 756 mmHg 46%
    11:00 +21°C° 0 mm 1 mps 756 mmHg 43%
    12:00 +23°C° 0 mm 1 mps 756 mmHg 39%
    13:00 +24°C° 0 mm 2 mps 756 mmHg 35%
    14:00 +23°C° 0 mm 1 mps 756 mmHg 37%
    15:00 +23°C° 0 mm 1 mps 756 mmHg 38%
    16:00 +20°C° 0 mm 0 mps 756 mmHg 40%
    17:00 +19°C° 0 mm 0 mps 756 mmHg 42%
    18:00 +20°C° 0 mm 1 mps 756 mmHg 45%
    19:00 +18°C° 0 mm 1 mps 756 mmHg 47%
    20:00 +18°C° 0 mm 1 mps 756 mmHg 49%
    21:00 +18°C° 0 mm 1 mps 757 mmHg 50%
    22:00 +16°C° 0 mm 1 mps 757 mmHg 51%
    23:00 +16°C° 0 mm 1 mps 757 mmHg 52%

    Tomorrow, 21 October, Saturday

    Time Temperature Precipitation Wind Pressure Humidity
    00:00 +15°C° 0 mm 1 mps 757 mmHg 53%
    01:00 +15°C° 0 mm 1 mps 757 mmHg 54%
    02:00 +15°C° 0 mm 1 mps 757 mmHg 55%
    03:00 +14°C° 0 mm 1 mps 757 mmHg 56%
    04:00 +14°C° 0 mm 2 mps 756 mmHg 57%
    05:00 +14°C° 0 mm 2 mps 757 mmHg 58%
    06:00 +14°C° 0 mm 2 mps 757 mmHg 58%
    07:00 +14°C° 0 mm 2 mps 757 mmHg 58%
    08:00 +16°C° 0 mm 2 mps 757 mmHg 53%
    09:00 +18°C° 0 mm 2 mps 757 mmHg 47%
    10:00 +20°C° 0 mm 2 mps 757 mmHg 42%
    11:00 +21°C° 0 mm 2 mps 756 mmHg 41%
    12:00 +23°C° 0 mm 2 mps 756 mmHg 39%
    13:00 +23°C° 0 mm 2 mps 756 mmHg 38%
    14:00 +23°C° 0 mm 2 mps 755 mmHg 40%
    15:00 +21°C° 0 mm 2 mps 755 mmHg 42%
    16:00 +21°C° 0 mm 2 mps 755 mmHg 44%
    17:00 +21°C° 0 mm 1 mps 755 mmHg 48%
    18:00 +20°C° 0 mm 1 mps 755 mmHg 51%
    19:00 +18°C° 0 mm 1 mps 755 mmHg 54%
    20:00 +18°C° 0 mm 1 mps 755 mmHg 56%
    21:00 +16°C° 0 mm 1 mps 755 mmHg 58%
    22:00 +16°C° 0 mm 1 mps 755 mmHg 60%
    23:00 +15°C° 0 mm 1 mps 755 mmHg 62%

    Day after tomorrow, 22 October, Sunday

    Time Temperature Precipitation Wind Pressure Humidity
    00:00 +15°C° 0 mm 1 mps 755 mmHg 64%
    01:00 +15°C° 0 mm 1 mps 755 mmHg 65%
    02:00 +14°C° 0 mm 1 mps 755 mmHg 66%
    03:00 +14°C° 0 mm 1 mps 755 mmHg 68%
    04:00 +13°C° 0 mm 1 mps 755 mmHg 69%
    05:00 +14°C° 0 mm 1 mps 755 mmHg 69%
    06:00 +14°C° 0 mm 1 mps 755 mmHg 68%
    07:00 +14°C° 0 mm 1 mps 755 mmHg 68%
    08:00 +16°C° 0 mm 1 mps 754 mmHg 62%
    09:00 +18°C° 0 mm 1 mps 754 mmHg 56%
    10:00 +20°C° 0 mm 1 mps 754 mmHg 50%
    11:00 +21°C° 0 mm 1 mps 754 mmHg 47%
    12:00 +22°C° 0 mm 1 mps 753 mmHg 44%
    13:00 +22°C° 0 mm 1 mps 753 mmHg 42%
    14:00 +22°C° 0 mm 1 mps 752 mmHg 43%
    15:00 +21°C° 0 mm 1 mps 752 mmHg 45%
    16:00 +21°C° 0 mm 1 mps 751 mmHg 47%
    17:00 +20°C° 0 mm 1 mps 751 mmHg 50%
    18:00 +19°C° 0 mm 1 mps 751 mmHg 52%
    19:00 +17°C° 0 mm 2 mps 751 mmHg 55%
    20:00 +17°C° 0 mm 2 mps 751 mmHg 57%
    21:00 +17°C° 0 mm 2 mps 750 mmHg 58%
    22:00 +16°C° 0 mm 2 mps 750 mmHg 60%
    23:00 +16°C° 0 mm 2 mps 750 mmHg 61%

    23 October, Monday

    Time Temperature Precipitation Wind Pressure Humidity
    00:00 +16°C° 0 mm 2 mps 749 mmHg 62%
    01:00 +15°C° 0 mm 2 mps 749 mmHg 62%
    02:00 +15°C° 0 mm 1 mps 749 mmHg 63%
    03:00 +15°C° 0 mm 1 mps 748 mmHg 63%
    04:00 +15°C° 0 mm 1 mps 748 mmHg 64%
    05:00 +15°C° 0.2 mm 1 mps 748 mmHg 64%
    06:00 +15°C° 0.2 mm 1 mps 747 mmHg 64%
    07:00 +15°C° 0.2 mm 1 mps 747 mmHg 65%
    08:00 +14°C° 1.2 mm 1 mps 747 mmHg 68%
    09:00 +14°C° 1.2 mm 2 mps 747 mmHg 72%
    10:00 +14°C° 1.2 mm 2 mps 747 mmHg 75%
    11:00 +13°C° 0.7 mm 3 mps 747 mmHg 76%
    12:00 +13°C° 0.7 mm 3 mps 747 mmHg 78%
    13:00 +13°C° 0.7 mm 3 mps 747 mmHg 79%
    14:00 +13°C° 0.7 mm 3 mps 747 mmHg 80%
    15:00 +13°C° 0.7 mm 3 mps 748 mmHg 80%
    16:00 +13°C° 0.7 mm 3 mps 748 mmHg 81%
    17:00 +14°C° 0.6 mm 2 mps 748 mmHg 82%
    18:00 +14°C° 0.6 mm 2 mps 749 mmHg 84%
    19:00 +13°C° 0.6 mm 2 mps 749 mmHg 86%
    20:00 +13°C° 0.3 mm 2 mps 749 mmHg 86%
    21:00 +13°C° 0.3 mm 2 mps 749 mmHg 87%
    22:00 +13°C° 0.3 mm 2 mps 750 mmHg 87%
    23:00 +13°C° 0.2 mm 2 mps 750 mmHg 88%

    24 October, Tuesday

    Time Temperature Precipitation Wind Pressure Humidity
    00:00 +13°C° 0.2 mm 2 mps 750 mmHg 89%
    01:00 +13°C° 0.2 mm 2 mps 750 mmHg 89%
    02:00 +13°C° 0.4 mm 2 mps 751 mmHg 90%
    03:00 +12°C° 0.4 mm 3 mps 751 mmHg 91%
    04:00 +12°C° 0.4 mm 3 mps 751 mmHg 91%
    05:00 +12°C° 0.3 mm 3 mps 752 mmHg 91%
    06:00 +12°C° 0.3 mm 3 mps 752 mmHg 90%
    07:00 +12°C° 0.3 mm 3 mps 753 mmHg 90%
    08:00 +13°C° 0.1 mm 3 mps 753 mmHg 84%
    09:00 +14°C° 0.1 mm 3 mps 754 mmHg 78%
    10:00 +17°C° 0.1 mm 3 mps 754 mmHg 72%
    11:00 +17°C° 0 mm 3 mps 754 mmHg 70%
    12:00 +17°C° 0 mm 3 mps 754 mmHg 68%
    13:00 +18°C° 0 mm 3 mps 754 mmHg 65%
    14:00 +17°C° 0.1 mm 3 mps 754 mmHg 68%
    15:00 +17°C° 0.1 mm 3 mps 755 mmHg 71%
    16:00 +16°C° 0.1 mm 3 mps 755 mmHg 74%
    17:00 +14°C° 0.1 mm 3 mps 755 mmHg 76%
    18:00 +14°C° 0.1 mm 4 mps 755 mmHg 78%
    19:00 +13°C° 0.1 mm 4 mps 756 mmHg 79%
    20:00 +13°C° 0.2 mm 4 mps 756 mmHg 81%
    21:00 +12°C° 0.2 mm 4 mps 756 mmHg 82%
    22:00 +12°C° 0.2 mm 4 mps 756 mmHg 83%
    23:00 +12°C° 0.7 mm 4 mps 757 mmHg 84%

    25 October, Wednesday

    Time Temperature Precipitation Wind Pressure Humidity
    00:00 +11°C° 0.7 mm 4 mps 757 mmHg 86%
    01:00 +11°C° 0.7 mm 4 mps 757 mmHg 87%
    02:00 +11°C° 0.4 mm 4 mps 757 mmHg 87%
    03:00 +11°C° 0.4 mm 3 mps 757 mmHg 87%
    04:00 +11°C° 0.4 mm 3 mps 758 mmHg 87%
    05:00 +11°C° 0 mm 3 mps 758 mmHg 86%
    06:00 +12°C° 0 mm 2 mps 758 mmHg 85%
    07:00 +12°C° 0 mm 2 mps 759 mmHg 84%
    08:00 +13°C° 0 mm 2 mps 760 mmHg 76%
    09:00 +14°C° 0 mm 2 mps 760 mmHg 68%
    10:00 +16°C° 0 mm 2 mps 761 mmHg 60%
    11:00 +16°C° 0 mm 2 mps 761 mmHg 54%
    12:00 +17°C° 0 mm 3 mps 761 mmHg 49%
    13:00 +18°C° 0 mm 3 mps 761 mmHg 44%
    14:00 +18°C° 0 mm 3 mps 761 mmHg 45%
    15:00 +17°C° 0 mm 3 mps 761 mmHg 46%
    16:00 +17°C° 0 mm 3 mps 761 mmHg 48%
    17:00 +14°C° 0 mm 3 mps 762 mmHg 50%
    18:00 +13°C° 0 mm 3 mps 762 mmHg 53%
    19:00 +12°C° 0 mm 3 mps 762 mmHg 55%
    20:00 +11°C° 0 mm 3 mps 763 mmHg 55%
    21:00 +11°C° 0 mm 3 mps 763 mmHg 54%
    22:00 +10°C° 0 mm 2 mps 764 mmHg 54%
    23:00 +10°C° 0 mm 2 mps 764 mmHg 52%
    Show more